RH
12 10 10 9 10 36 50 76 57 40 46 99 91 67 97 99 93 95 90 90 82 58 46 70 61 39 39 37 44 44 48 50 63 38 25 48 61 57 66 59 73 79 76 74
100 79 36 60 62 100 94 97 98 76 81 93 99 81 76 75 92 88 91 96 85 78 77 70 57 46 48 44 44 45 48 69 72 35 34 45 54 58 62 71 79 80 85 64
93 98 96 76 96 100 99 98 99 92 99 100 99 100 100 100 99 82 90 91 84 91 85 86 78 66 61 60 59 54 60 68 70 60 44 52 62 47 54 83 84 77 75 49
94 91 96 98 93 95 99 98 98 97 94 92 94 88 91 94 98 95 93 96 96 92 89 77 74 73 89 81 69 70 68 74 78 68 62 65 54 49 33 61 54 85 34 49
92 99 95 85 96 99 89 86 96 99 97 98 96 96 91 82 76 78 92 96 86 84 99 92 96 96 91 90 84 84 98 94 83 79 62 59 60 25 28 38 34 41 38 38
90 91 88 84 77 88 96 96 91 93 94 94 98 99 96 95 99 80 76 72 97 96 90 96 86 94 97 99 99 90 100 99 96 89 74 77 34 37 40 40 41 36 43 31
60 90 96 91 81 72 74 86 98 99 96 97 98 96 94 90 86 89 94 86 81 58 62 82 84 96 92 90 88 90 96 97 98 92 83 86 33 34 39 39 31 34 34 34
39 47 60 77 84 70 66 65 62 73 94 97 95 89 87 78 94 95 92 72 58 45 69 78 88 78 61 55 58 67 72 94 98 89 82 68 21 31 33 39 28 36 35 26
46 32 27 29 41 44 50 55 60 66 70 65 58 64 66 69 69 59 34 21 13 18 73 96 100 94 73 62 82 62 72 90 90 88 92 84 24 40 44 46 32 28 29 23
72 49 39 28 23 23 26 28 40 57 71 71 68 60 49 44 39 31 19 15 16 37 95 84 90 99 91 85 72 63 76 94 94 91 94 75 26 35 45 42 34 37 39 25
91 86 68 53 45 32 24 24 24 25 34 43 42 47 49 44 41 32 24 30 18 42 75 89 97 94 82 78 67 67 71 90 92 97 95 88 34 44 42 32 28 31 42 38
83 78 81 66 59 66 68 38 45 82 93 81 40 32 38 33 33 38 28 34 34 94 98 93 86 91 89 81 89 70 90 63 76 60 42 33 44 38 37 35 29 34 41 39
69 64 70 72 72 82 98 93 65 46 64 46 36 23 26 28 30 39 32 18 46 40 99 100 96 85 87 97 80 75 75 72 64 69 54 38 32 44 40 30 32 36 40 38
90 65 53 48 59 69 85 96 99 92 54 46 29 31 24 31 51 57 51 40 65 79 83 85 82 98 86 83 76 92 82 76 64 60 51 43 36 37 36 32 34 40 39 37
84 94 80 63 39 35 41 51 61 79 86 49 33 35 29 59 36 44 53 79 82 90 97 96 94 80 97 85 97 86 84 89 81 64 49 44 32 35 37 30 35 42 37 36
66 84 93 84 67 78 48 44 37 41 62 52 64 62 34 30 16 59 63 75 63 94 96 96 96 99 99 97 90 50 73 72 60 54 49 46 39 30 23 27 36 39 40 35
84 79 87 90 79 67 71 66 68 85 97 98 92 70 40 20 15 37 90 67 94 98 97 96 98 100 97 96 79 52 77 56 54 49 44 45 44 32 25 22 34 39 37 38
68 85 86 84 78 77 68 52 56 65 96 100 99 61 32 22 22 57 86 93 96 97 98 97 95 97 95 92 63 64 88 56 46 42 42 41 38 36 38 30 32 38 37 38
91 80 78 70 65 56 36 39 46 38 50 76 72 58 46 73 100 86 96 95 97 96 96 97 99 94 96 70 61 69 83 64 52 44 44 35 28 28 28 36 35 37 32 37
64 87 100 80 58 57 59 77 78 72 77 93 41 43 40 42 50 77 97 96 96 97 90 95 100 77 70 82 81 72 69 58 49 40 36 34 32 24 20 20 22 21 27 37
80 92 87 71 88 89 93 90 98 85 84 65 36 30 21 32 56 66 94 97 97 96 93 93 93 84 55 63 72 70 63 54 42 36 35 34 36 30 24 22 25 31 36 36
96 96 93 90 94 94 81 83 72 66 70 74 62 60 72 82 93 93 97 96 95 96 100 98 87 62 58 56 54 57 56 52 38 24 26 35 34 33 32 30 29 33 34 33
98 100 100 89 76 84 70 70 60 83 89 98 98 97 97 97 97 97 97 96 95 98 98 93 68 59 53 50 51 52 48 43 36 26 26 27 33 32 28 24 23 31 33 37
99 97 94 74 92 70 56 41 80 99 98 98 93 90 97 96 97 95 97 95 92 98 93 65 61 58 50 48 48 50 38 29 34 38 30 36 36 26 23 25 31 33 38 40
98 94 78 56 61 97 98 97 96 97 98 94 90 94 96 97 96 96 95 94 91 73 56 54 56 54 53 53 52 50 48 45 44 39 32 27 32 36 39 46 50 49 47 46
98 92 62 55 95 94 96 96 95 97 100 97 92 96 97 96 96 95 86 84 70 55 57 50 57 55 56 54 50 47 47 45 44 45 45 43 43 48 52 51 48 48 53 58
81 50 47 54 48 59 83 97 99 98 89 90 96 95 96 97 93 93 92 78 64 62 73 85 68 61 56 59 59 57 56 55 56 60 62 62 58 53 56 60 57 62 64 63
Wind_Speed
20 20 19 19 21 15 15 17 20 23 22 25 32 38 35 25 19 15 19 22 22 20 20 26 26 21 13 20 21 23 21 15 22 29 11 13 18 19 20 11 5 17 23 47
6 9 12 11 10 12 16 16 16 17 17 23 30 33 31 28 29 30 33 23 16 12 10 12 9 6 7 16 21 15 17 10 13 15 4 4 8 12 12 18 31 35 14 26
4 4 4 8 12 14 15 15 12 16 17 25 23 23 25 23 19 21 19 28 29 25 27 19 15 17 15 14 19 25 25 23 25 24 29 30 38 38 38 30 24 31 34 52
7 7 7 7 8 18 18 15 18 18 16 16 17 20 23 14 8 16 19 24 26 20 23 25 29 26 28 24 21 21 23 29 28 32 32 32 39 39 34 32 37 29 43 41
16 13 8 12 12 12 19 24 19 15 16 10 17 14 20 18 14 25 24 22 19 20 22 21 25 23 22 24 22 13 22 29 28 34 34 20 29 41 39 19 19 27 28 36
21 22 19 14 13 16 15 18 23 23 23 22 15 19 18 15 13 17 19 24 19 19 16 21 24 25 28 33 30 27 24 26 22 26 21 33 28 6 9 16 23 22 28 28
16 17 19 18 16 16 19 23 23 19 23 22 19 19 21 19 18 19 18 15 20 19 22 28 32 36 37 37 38 34 37 29 24 23 27 5 6 12 24 24 19 25 20 18
14 15 17 19 21 20 20 22 24 27 30 31 27 25 26 22 22 24 26 22 21 20 22 24 27 31 33 28 28 35 31 34 25 18 17 32 37 16 7 15 25 12 18 26
16 14 14 14 16 19 22 24 27 29 31 33 29 31 29 28 30 33 32 30 25 24 23 21 21 15 19 13 9 11 24 32 34 22 7 6 12 13 15 19 15 18 21 22
19 18 17 16 14 14 16 19 26 31 35 37 31 32 30 32 32 34 30 30 28 21 25 27 31 33 27 23 29 31 22 19 34 29 19 23 37 20 18 8 10 17 21 21
25 22 21 20 19 18 17 15 19 24 31 34 31 28 35 33 31 33 30 30 30 25 22 26 27 29 31 33 38 34 27 14 23 24 15 20 11 11 12 10 15 17 20 19
28 26 25 25 23 22 23 21 20 21 26 30 24 23 27 29 31 32 33 36 30 13 10 20 22 29 26 29 35 31 39 38 28 30 22 16 12 12 11 17 18 15 18 16
24 27 27 26 27 28 27 27 25 28 33 36 33 19 19 27 29 31 35 34 33 37 35 29 25 24 19 23 35 35 33 32 40 36 41 35 32 25 23 17 17 14 16 12
24 23 21 24 28 29 29 29 27 28 32 41 43 35 25 26 23 21 28 33 32 30 35 42 44 33 34 36 36 32 33 32 36 43 42 38 29 20 19 19 16 12 12 9
27 24 23 23 22 25 31 33 32 30 30 36 45 44 30 25 25 26 25 31 33 32 41 44 49 46 44 46 40 47 30 40 39 47 36 34 28 25 26 16 13 9 8 7
27 26 25 24 23 23 25 32 32 34 31 34 40 38 36 29 23 25 35 30 30 36 39 40 47 40 35 24 29 39 25 40 34 27 29 26 18 15 13 14 12 8 7 5
22 24 24 24 24 25 27 29 23 16 14 26 33 39 41 26 27 27 19 26 27 34 35 41 41 39 37 37 43 30 16 16 23 27 29 30 27 24 22 18 13 9 6 6
21 20 20 22 24 28 32 29 27 26 30 33 31 42 42 28 33 27 19 19 26 35 38 38 42 37 35 37 40 33 17 15 14 13 10 13 14 13 19 20 12 11 9 8
21 24 26 29 29 29 25 24 26 30 35 36 37 40 39 14 14 24 22 19 22 27 33 39 34 37 31 38 33 27 30 27 26 26 22 20 20 19 15 19 17 13 13 11
17 20 25 27 24 24 23 22 24 27 31 39 48 45 46 36 33 27 23 11 18 12 30 24 30 42 40 29 15 16 20 21 21 22 21 18 16 14 15 17 19 19 17 13
20 19 22 20 18 18 22 20 16 14 24 35 42 39 37 38 36 32 22 8 9 7 13 21 15 31 29 23 26 26 24 22 20 17 13 10 8 11 15 15 14 14 15 14
16 17 19 17 16 13 11 10 10 16 18 24 26 29 26 28 24 23 17 19 7 5 8 12 11 27 26 23 23 26 27 27 23 24 26 23 19 18 15 14 14 14 15 15
15 15 15 8 9 14 12 8 14 12 13 10 12 20 21 16 20 15 9 7 8 9 8 6 15 14 15 18 21 23 19 23 25 24 24 23 21 20 20 19 16 16 16 15
21 17 11 7 8 8 18 21 22 22 21 22 24 28 16 20 15 11 7 11 6 4 7 23 19 15 10 18 19 21 20 20 21 18 17 19 19 16 15 15 15 16 16 16
17 12 8 15 20 13 4 11 19 18 18 22 23 24 23 15 12 10 8 7 6 8 17 19 15 16 16 14 14 14 15 16 17 16 12 11 12 11 11 10 11 11 12 11
15 16 16 20 23 18 16 16 14 13 12 15 24 13 10 14 8 7 6 6 8 8 9 12 17 19 16 13 11 11 11 11 12 12 12 12 12 10 9 8 8 7 6 6
17 24 25 28 31 26 23 24 15 11 15 22 14 8 8 8 9 7 12 17 17 14 9 12 11 18 16 12 10 11 11 12 12 13 12 11 9 8 8 7 6 6 6 7
Wind_Direction
274 269 262 254 254 253 247 249 247 246 231 213 237 240 247 251 233 231 238 251 253 255 254 280 274 269 272 284 288 297 299 279 278 297 316 268 266 272 269 256 244 257 275 282
2 290 262 246 237 212 233 239 246 244 241 229 241 243 251 257 252 248 252 258 259 261 260 280 269 260 306 275 275 284 298 266 298 306 271 316 294 285 255 272 286 271 262 273
305 333 297 253 214 199 226 246 243 238 231 236 245 244 252 247 257 254 234 251 260 252 252 248 260 254 271 273 280 289 292 273 261 260 283 295 295 298 297 286 274 277 260 286
251 263 229 223 225 216 214 237 247 257 253 248 253 253 250 238 248 251 247 252 250 266 275 276 268 268 266 256 276 274 272 274 283 283 286 293 296 295 299 283 281 264 297 294
243 256 259 244 235 227 224 235 244 234 238 272 264 251 256 261 262 250 248 267 283 255 255 257 264 264 256 264 268 277 268 264 283 285 296 295 292 300 297 286 285 283 300 303
251 249 253 257 258 249 237 244 244 249 261 261 259 260 261 264 264 271 266 263 262 258 260 260 264 266 267 262 265 262 274 276 277 285 298 308 305 295 298 296 303 301 297 315
267 266 261 255 254 255 251 247 246 249 257 258 263 269 264 276 275 268 257 259 268 274 276 271 273 265 265 265 262 261 264 261 261 277 302 263 271 285 289 294 300 308 302 324
274 269 264 260 258 260 257 258 259 260 262 263 264 264 275 268 265 266 271 274 284 290 277 280 292 289 283 276 275 258 256 243 247 261 266 282 300 318 303 307 319 330 322 328
269 268 269 270 263 259 257 258 260 261 266 268 269 265 267 273 269 273 274 276 284 269 263 264 264 260 271 273 261 256 237 233 233 244 252 257 270 285 298 311 311 335 334 336
269 263 264 269 271 272 266 259 258 261 265 268 266 266 272 271 273 275 280 284 284 267 241 253 258 253 248 247 254 262 282 251 231 237 245 267 272 281 280 266 309 328 336 336
271 268 261 260 265 271 270 266 268 267 269 272 270 269 269 269 268 266 272 277 284 267 248 237 246 248 250 254 255 249 247 239 222 229 239 263 283 250 228 295 312 323 329 333
269 267 262 257 258 263 270 264 264 269 271 275 284 269 263 266 266 271 267 265 266 253 234 238 243 241 248 259 249 252 238 238 244 238 244 292 279 249 274 303 311 318 327 329
270 269 267 263 259 262 264 269 267 267 275 281 283 274 258 262 270 267 265 272 259 244 235 250 250 238 255 244 252 253 254 251 246 256 260 265 270 273 286 302 305 315 325 327
264 267 269 266 259 258 261 265 266 271 277 282 279 280 275 279 275 261 280 271 260 264 245 246 252 266 266 266 268 261 248 252 239 248 257 263 263 276 260 289 293 314 320 320
266 266 264 268 271 267 263 263 264 267 271 275 283 282 280 287 298 278 275 255 256 261 253 238 251 252 255 262 266 258 266 236 239 241 253 268 282 265 264 256 276 311 319 313
266 263 262 262 266 268 271 269 261 266 272 276 282 282 286 287 288 281 261 243 246 257 259 248 237 251 247 246 266 259 272 227 225 241 258 266 253 242 251 256 265 281 323 314
271 266 263 263 263 263 260 264 262 263 263 279 289 285 282 289 294 291 292 232 229 247 246 243 243 239 244 251 268 270 244 234 233 242 248 248 253 259 262 246 254 248 290 331
270 268 266 264 264 262 261 265 268 262 264 270 276 277 281 293 298 295 289 278 247 242 240 236 234 247 257 253 253 271 223 231 220 202 236 262 245 260 247 226 233 245 263 295
271 262 258 261 262 266 279 269 270 249 252 258 262 262 277 292 307 312 271 275 254 240 238 240 242 244 239 255 267 258 226 239 243 252 263 266 254 257 252 227 238 262 265 274
278 261 252 262 271 272 277 275 255 242 245 251 254 260 263 267 271 281 290 239 225 231 238 242 237 244 251 250 241 234 234 241 246 252 250 256 253 247 244 244 249 252 250 259
261 253 250 263 273 273 280 278 228 227 239 255 263 265 266 264 259 262 266 262 210 216 213 213 234 244 246 243 238 234 231 239 241 244 234 235 254 247 243 245 249 243 241 258
257 249 250 257 261 260 251 245 223 232 240 249 266 276 277 270 254 243 250 228 233 236 193 198 241 258 262 259 246 248 250 247 252 254 250 248 251 247 246 249 255 251 251 258
239 237 239 250 240 229 227 242 222 227 235 258 293 281 266 241 226 226 228 215 223 219 203 222 255 269 266 266 253 243 232 234 248 246 245 248 249 251 254 251 254 256 257 257
214 224 226 231 228 223 243 247 259 264 277 282 293 293 230 223 208 222 208 212 211 220 237 253 260 253 252 242 235 218 219 230 233 238 241 239 241 243 242 243 248 251 252 257
208 214 228 234 232 281 309 259 268 274 275 281 274 296 229 216 210 203 204 193 212 220 252 266 243 218 229 232 222 220 223 226 229 228 223 212 212 218 227 236 246 253 255 252
241 234 244 244 257 289 315 311 295 280 288 289 291 250 216 216 198 206 193 207 228 244 268 246 222 225 227 224 216 207 204 204 202 198 198 202 208 216 227 233 234 229 218 206
255 259 265 273 280 279 296 309 308 304 299 289 275 212 231 164 189 204 210 228 243 266 280 287 251 223 225 213 195 180 178 179 177 175 176 176 173 165 154 149 157 170 164 160